Flag for India Weather past 2 weeks in Jalandhar, Punjab, India

Now
104 °F

Duststorm.


Feels Like: 101 °F
Forecast: 82 / 106 °F
Wind: 3 mph from South

Location: Amritsar Airport

Current Time: May 30, 2015 at 1:06:08 PM

Latest Report: May 30, 2015 at 12:30 PM


Visibility: 3 mi

Pressure: 29.68 "Hg

Humidity: 16%

Dew point: 50 °F

Location of JalandharLocation

Historic Weather in Jalandhar — Graph

°F

Jalandhar temperature yesterday

Maximum temperature yesterday: 102 °F (at 2:30 PM)
Minimum temperature yesterday: 77 °F (at 5:00 AM)
Average temperature yesterday: 90 °F

Past Weeks' High & Low Weather Summary

 TemperatureHumidityPressure
High109 °F (May 23, 2:30 PM)83% (May 16, 5:30 AM)29.86 "Hg (May 16, 5:30 AM)
Low73 °F (May 16, 5:30 AM)7% (May 27, 4:00 PM)29.42 "Hg (May 23, 4:00 PM)
Average91 °F35%29.59 "Hg
* Reported May 15 10:30 AM — May 30 11:00 AM, Jalandhar, Weather by CustomWeather, © 2015

Note: Actual official high and low records may vary slightly from our data, if they occured in-between our weather recording intervals... More about our weather records

Advertising

Jalandhar weather history for previous 24 hours

 ConditionsComfort  
Time TempWeatherWind HumidityBarometerVisibility
11:00 AM
Sat, May 30
100 °FDuststorm.1 mph22%29.71 "Hg3 mi
10:00 AM97 °FDuststorm.2 mph27%29.71 "Hg3 mi
9:00 AM91 °FDuststorm.8 mph32%29.71 "Hg3 mi
8:30 AM90 °FDuststorm.5 mph33%29.71 "Hg3 mi
6:30 AM81 °FHaze.No wind48%29.68 "Hg2 mi
5:30 AM81 °FHaze.1 mph45%29.68 "Hg2 mi
4:30 AM81 °FHaze.8 mph45%29.65 "Hg2 mi
3:30 AM81 °FHaze.10 mph48%29.65 "Hg2 mi
2:30 AM82 °FHaze.No wind48%29.65 "Hg2 mi
1:30 AM82 °FHaze.No wind51%29.65 "Hg2 mi
12:30 AM84 °FHaze.No wind45%29.68 "Hg2 mi
11:30 PM
Fri, May 29
86 °FHaze.No wind43%29.68 "Hg2 mi
10:30 PM88 °FDuststorm.No wind40%29.68 "Hg2 mi
9:30 PM90 °FPassing clouds.No wind36%29.68 "Hg2 mi
8:30 PM93 °FPassing clouds.No wind28%29.65 "Hg2 mi
8:00 PM93 °FPassing clouds.No wind28%29.65 "Hg3 mi
7:00 PM99 °FDuststorm.1 mph24%29.62 "Hg3 mi
6:30 PM100 °FDuststorm.6 mph21%29.62 "Hg3 mi
5:30 PM102 °FDuststorm.7 mph18%29.59 "Hg3 mi
2:30 PM102 °FScattered clouds.7 mph20%29.62 "Hg3 mi
2:00 PM100 °FBroken clouds.9 mph22%29.65 "Hg3 mi
1:30 PM100 °FBroken clouds.7 mph22%29.65 "Hg3 mi
1:00 PM99 °FBroken clouds.10 mph25%29.68 "Hg3 mi
Weather by CustomWeather, © 2015

See weather overviewHow to use our weather pages